PBO Station Position Time Series. Reference Frame : NAM14
Format Version,1.1.1
4-character ID,AL50
Station name,ALDOT_5_DIV_OFF
Begin Date, 2006-08-06
End Date, 2023-06-26
Release Date, 2023-06-27
Reference position, 33.1679743436 North Latitude, -87.5015144960 East Longitude, 97.87646 meters elevation,
Date, North (mm), East (mm), Vertical (mm), North Std. Deviation (mm), East Std. Deviation (mm),              Vertical Std. Deviation (mm), Quality,
2006-08-06,0.00, 0.00, 0.00, 1.96, 1.75, 7.86, repro,
2006-08-07,1.41, -1.16, 2.88, 1.93, 1.74, 7.73, repro,
2006-08-08,2.33, 0.08, -0.11, 1.91, 1.70, 7.71, repro,
2006-08-09,0.14, -3.92, 12.29, 2.24, 1.96, 8.80, repro,
2006-08-10,-0.38, -1.45, 4.55, 1.93, 1.72, 7.82, repro,
2006-08-11,0.58, -1.04, 6.12, 2.41, 2.10, 9.88, repro,
2006-08-12,0.04, 2.94, -6.70, 1.93, 1.71, 7.74, repro,
2006-08-13,0.99, 5.96, 4.07, 2.04, 1.72, 8.34, repro,
2006-08-14,-0.75, 0.49, 26.02, 2.06, 1.91, 8.38, repro,
2006-08-15,-0.17, -4.32, 7.47, 2.41, 2.13, 10.19, repro,
2006-08-16,-0.36, 1.33, -3.77, 2.04, 1.87, 8.28, repro,
2006-08-17,2.67, 2.99, 8.16, 1.97, 1.80, 7.90, repro,
2006-08-18,4.33, -0.30, 1.31, 2.01, 1.77, 8.19, repro,
2006-08-19,1.89, 4.88, -3.68, 1.95, 1.79, 8.09, repro,
2006-08-20,1.07, -0.56, 8.96, 1.99, 1.78, 8.23, repro,
2006-08-21,1.63, 2.92, -0.88, 2.15, 1.89, 8.96, repro,
2006-08-22,2.18, 0.88, -4.15, 2.03, 1.86, 8.20, repro,
2006-08-23,1.00, 1.40, 2.36, 1.96, 1.74, 8.02, repro,
2006-08-24,3.36, -1.62, 16.22, 2.27, 2.00, 9.13, repro,
2006-08-25,0.76, 3.06, 14.26, 2.08, 1.91, 8.51, repro,
2006-08-26,2.66, 2.66, -2.81, 2.03, 1.79, 8.13, repro,
2006-08-27,1.23, -1.77, 18.21, 2.13, 1.85, 8.41, repro,
2006-08-28,1.63, 1.30, -0.21, 2.04, 1.80, 8.13, repro,
2006-08-29,-0.04, -2.90, 3.38, 2.10, 1.84, 8.21, repro,
2006-08-30,1.52, -1.57, 6.93, 2.10, 1.87, 8.29, repro,
2006-08-31,0.92, -2.17, 11.51, 2.21, 1.95, 8.73, repro,
2006-09-01,1.16, -1.39, 10.92, 2.08, 1.81, 8.36, repro,
2006-09-02,1.71, -1.99, 0.99, 2.10, 1.95, 8.37, repro,
2006-09-03,2.70, -0.48, 6.30, 2.02, 1.77, 7.99, repro,
2006-09-04,1.55, -2.19, -1.22, 2.10, 1.90, 8.45, repro,
2006-09-05,1.34, 4.32, -16.61, 2.77, 2.71, 11.32, repro,
2006-09-06,-2.42, 2.07, 2.24, 2.74, 2.33, 10.56, repro,
2006-09-14,13.50, -1.14, 5.55, 2.79, 2.79, 11.91, repro,
2006-09-15,6.09, 1.01, 5.20, 1.98, 1.79, 8.07, repro,
2006-09-16,4.93, -0.94, 15.32, 1.91, 1.72, 7.80, repro,
2006-09-17,3.15, -1.20, 8.70, 1.94, 1.76, 7.97, repro,
2006-09-18,-0.56, -0.03, -1.24, 2.40, 2.02, 9.95, repro,
2006-09-19,3.17, 2.37, 10.54, 1.99, 1.82, 8.31, repro,
2006-09-20,5.33, 0.75, 4.61, 1.94, 1.74, 7.86, repro,
2006-09-21,5.47, -1.55, 5.30, 2.10, 1.80, 8.21, repro,
2006-09-22,0.01, 1.26, 9.57, 2.08, 1.82, 8.43, repro,
2006-09-23,3.01, 3.57, 9.00, 2.04, 1.86, 8.33, repro,
2006-09-24,-0.98, 1.43, 5.74, 2.37, 1.97, 9.60, repro,
2006-09-25,5.54, -2.29, 5.41, 2.00, 1.80, 8.00, repro,
2006-09-26,4.95, -11.18, -39.30, 16.89, 33.12, 42.35, repro,
2006-09-27,6.32, -0.73, 9.59, 2.04, 1.79, 8.09, repro,
2006-09-28,1.98, 1.35, 5.07, 2.00, 1.74, 7.95, repro,
2006-09-29,7.27, -0.78, 0.80, 2.05, 1.80, 8.09, repro,
2006-09-30,3.24, 1.45, 10.57, 2.01, 1.81, 8.08, repro,
2006-10-01,4.57, -1.87, 8.05, 2.24, 1.94, 8.77, repro,
2006-10-02,7.17, 0.35, 5.04, 2.00, 1.82, 8.14, repro,
2006-10-03,5.77, 1.86, -6.29, 2.02, 1.82, 8.22, repro,
2006-10-04,4.53, 1.08, -4.92, 2.04, 1.83, 8.22, repro,
2006-10-05,5.77, 0.03, -12.32, 2.00, 1.75, 7.94, repro,
2006-10-06,0.97, 3.24, -8.90, 2.05, 1.81, 8.15, repro,
2006-10-07,8.10, 2.34, -6.19, 2.04, 1.83, 8.21, repro,
2006-10-08,7.28, 1.46, 2.82, 2.04, 1.81, 8.13, repro,
2006-10-09,8.22, -0.81, -4.34, 2.03, 1.77, 8.03, repro,
2006-10-10,4.12, 0.13, 5.33, 1.99, 1.72, 7.90, repro,
2006-10-11,-0.24, 2.32, 13.98, 2.04, 1.79, 8.13, repro,
2006-10-12,3.63, -2.63, 4.61, 1.97, 1.75, 8.02, repro,
2006-10-13,13.06, -0.54, 0.47, 2.01, 1.84, 8.26, repro,
2006-10-14,13.42, -1.57, 7.86, 2.00, 1.76, 7.87, repro,
2006-10-15,12.22, 1.47, 9.92, 1.95, 1.71, 7.73, repro,
2006-10-16,5.28, 2.87, 10.87, 2.00, 1.78, 8.00, repro,
2006-10-17,9.27, -0.61, 11.38, 1.97, 1.77, 8.13, repro,
2006-10-18,15.71, -2.91, 13.02, 1.96, 1.72, 7.79, repro,
2006-10-19,5.35, 0.35, 5.31, 2.11, 1.81, 8.16, repro,
2006-10-20,8.98, -1.28, 0.82, 2.18, 1.88, 8.31, repro,
2006-10-21,10.91, 0.14, 5.52, 2.07, 1.89, 8.15, repro,
2006-10-22,11.71, -2.99, -5.50, 2.03, 1.88, 8.44, repro,
2006-10-23,14.33, -2.32, 0.79, 2.01, 1.78, 7.99, repro,
2006-10-24,17.69, -3.20, -6.09, 2.02, 1.84, 8.17, repro,
2006-10-25,5.55, 0.22, -2.63, 2.13, 1.85, 8.56, repro,
2006-10-26,5.62, -2.11, 0.28, 2.09, 1.75, 8.20, repro,
2006-10-27,6.37, -1.63, 0.51, 2.00, 1.80, 7.99, repro,
2006-10-28,11.88, -2.88, 7.17, 1.96, 1.78, 7.83, repro,
2006-10-29,8.66, 1.18, -1.83, 2.90, 2.43, 11.41, repro,
2006-10-30,11.54, -2.50, 0.64, 1.91, 1.70, 7.67, repro,
2006-10-31,5.88, -0.18, -10.43, 1.99, 1.77, 7.95, repro,
2006-11-01,9.72, -6.17, 2.44, 2.16, 1.96, 8.32, repro,
2006-11-02,14.48, -3.95, -7.12, 1.94, 1.72, 7.71, repro,
2006-11-03,14.28, -2.11, -10.38, 2.18, 1.97, 8.48, repro,
2006-11-04,12.51, -2.98, -6.12, 2.11, 1.89, 8.54, repro,
2006-11-05,11.05, -1.92, -2.85, 2.02, 1.82, 8.13, repro,
2006-11-06,6.91, -2.35, -6.00, 1.90, 1.67, 7.62, repro,
2006-11-07,3.47, -3.62, 0.44, 2.07, 1.86, 8.25, repro,
2006-11-08,10.72, -1.64, 9.47, 1.97, 1.79, 7.89, repro,
2006-11-09,13.65, -1.32, 11.06, 2.02, 1.84, 8.08, repro,
2006-11-10,7.59, -1.42, 7.29, 1.94, 1.77, 8.03, repro,
2006-11-11,3.63, 0.03, 0.86, 1.97, 1.79, 8.16, repro,
2006-11-12,12.98, -1.64, -2.30, 2.01, 1.82, 8.14, repro,
2006-11-13,9.66, -1.57, 0.20, 1.97, 1.79, 8.00, repro,
2006-11-14,8.39, -4.16, -0.26, 1.95, 1.73, 7.80, repro,
2006-11-15,3.48, -0.66, 12.12, 1.95, 1.73, 8.01, repro,
2006-11-16,2.64, -4.41, 4.89, 1.95, 1.73, 7.97, repro,
2006-11-17,11.13, -4.81, 0.96, 1.97, 1.75, 7.93, repro,
2006-11-18,10.89, -2.39, -2.59, 1.96, 1.72, 7.90, repro,
2006-11-19,4.90, -0.56, -6.30, 1.89, 1.69, 7.68, repro,
2006-11-20,10.14, -2.24, -15.81, 1.93, 1.70, 7.81, repro,
2006-11-21,12.40, -1.67, -4.86, 1.94, 1.72, 7.92, repro,
2006-11-22,10.11, 0.36, -1.73, 1.99, 1.77, 8.07, repro,
2006-11-23,12.20, 0.91, -3.96, 2.03, 1.75, 8.13, repro,
2006-11-24,11.41, 1.12, -2.88, 2.03, 1.77, 8.23, repro,
2006-11-25,10.20, 2.17, -0.65, 1.99, 1.75, 7.97, repro,
2006-11-26,9.64, 0.41, -4.54, 1.96, 1.77, 7.94, repro,
2006-11-27,7.48, 0.28, -7.34, 2.00, 1.81, 8.20, repro,
2006-11-28,3.44, -0.78, -2.80, 1.96, 1.75, 8.11, repro,
2006-11-29,2.82, -2.67, -4.10, 2.05, 1.76, 8.50, repro,
2006-11-30,3.44, 0.08, -9.49, 1.91, 1.70, 7.80, repro,
2006-12-01,10.65, -4.44, -21.16, 1.95, 1.73, 7.98, repro,
2006-12-02,8.53, -1.45, -10.55, 1.95, 1.74, 7.88, repro,
2006-12-03,9.65, -3.39, -10.53, 1.89, 1.69, 7.76, repro,
2006-12-04,4.59, -5.48, -14.98, 2.26, 2.02, 9.29, repro,
2006-12-05,10.35, -0.35, -10.99, 1.93, 1.74, 7.93, repro,
2006-12-06,4.12, -1.36, -1.68, 1.96, 1.77, 8.00, repro,
2006-12-07,8.54, -2.55, -14.64, 1.92, 1.71, 7.82, repro,
2006-12-08,9.06, -0.47, -11.67, 2.01, 1.78, 8.19, repro,
2006-12-09,10.26, 0.47, -6.41, 1.95, 1.75, 7.99, repro,
2006-12-10,3.93, 1.25, -7.61, 1.99, 1.79, 8.21, repro,
2006-12-11,7.05, -1.04, 0.15, 1.93, 1.73, 7.92, repro,
2006-12-12,2.85, -1.78, -11.81, 1.96, 1.76, 7.98, repro,
2006-12-13,6.39, -0.91, -8.55, 1.93, 1.74, 7.98, repro,
2006-12-14,6.60, 2.25, 0.54, 2.11, 1.94, 8.56, repro,
2006-12-15,6.80, 1.73, 1.62, 2.16, 2.00, 8.94, repro,
2006-12-16,-0.36, -4.90, -9.63, 3.85, 3.41, 14.52, repro,
2006-12-18,22.60, -3.21, -25.54, 12.91, 22.55, 34.63, repro,
2006-12-19,8.39, 4.89, -3.78, 4.33, 3.36, 15.88, repro,
2006-12-20,2.92, 0.63, 8.50, 2.69, 2.39, 10.55, repro,
2006-12-21,1.48, -2.89, -5.39, 2.03, 1.86, 8.49, repro,
2006-12-22,3.18, -3.56, -0.29, 2.28, 2.04, 9.41, repro,
2006-12-23,7.72, -4.17, -3.51, 2.19, 1.93, 9.14, repro,
2006-12-24,3.60, -2.63, -13.73, 2.18, 2.03, 9.08, repro,
2006-12-25,1.36, -2.85, -3.82, 2.01, 1.83, 8.31, repro,
2006-12-26,1.76, -5.81, -1.34, 2.14, 1.96, 9.04, repro,
2006-12-27,9.63, -0.87, 9.27, 2.02, 1.80, 8.36, repro,
2006-12-28,8.26, 0.29, 1.05, 2.25, 1.90, 9.25, repro,
2006-12-29,3.65, 0.35, -10.52, 2.31, 2.25, 9.89, repro,
2006-12-30,2.48, -0.17, -11.35, 2.83, 2.45, 11.46, repro,
2006-12-31,1.28, -3.49, -1.03, 2.06, 1.84, 8.57, repro,
2007-01-01,2.31, -4.05, 0.20, 2.09, 1.88, 8.67, repro,
2007-01-02,10.01, -1.09, -5.83, 2.08, 1.82, 8.61, repro,
2007-01-03,2.33, 0.31, -6.16, 2.04, 1.78, 8.50, repro,
2007-01-04,2.20, -1.89, 1.55, 2.05, 1.84, 8.51, repro,
2007-01-05,1.98, 0.90, 5.83, 2.10, 1.86, 8.73, repro,
2007-01-06,7.53, -0.26, 7.06, 2.01, 1.71, 8.27, repro,
2007-01-07,2.24, -0.61, 1.33, 2.31, 2.16, 9.56, repro,
2007-01-08,7.47, -3.36, -6.61, 2.13, 1.90, 8.85, repro,
2007-01-09,4.67, -1.20, -5.36, 2.00, 1.76, 8.41, repro,
2007-01-10,6.52, 0.75, -3.18, 1.98, 1.80, 8.32, repro,
2007-01-11,5.65, -0.48, -11.59, 2.02, 1.86, 8.47, repro,
2007-01-12,4.35, 0.41, -9.83, 1.93, 1.74, 7.94, repro,
2007-01-13,1.62, 0.20, -12.18, 1.99, 1.71, 8.25, repro,
2007-01-14,2.01, -0.91, -11.90, 1.95, 1.73, 8.09, repro,
2007-01-15,0.10, -3.16, -7.15, 2.15, 1.97, 8.82, repro,
2007-01-16,3.09, -4.05, -14.60, 2.18, 1.97, 9.00, repro,
2007-01-17,1.48, -3.68, -26.59, 2.05, 1.78, 8.57, repro,
2007-01-18,0.81, -1.37, -12.74, 1.93, 1.68, 7.94, repro,
2007-01-19,3.27, -2.72, -11.88, 2.14, 1.93, 8.73, repro,
2007-01-20,0.65, -0.80, -17.08, 2.17, 2.01, 9.21, repro,
2007-01-21,0.20, -2.28, -5.43, 1.89, 1.68, 7.89, repro,
2007-01-22,0.80, -5.59, 4.78, 2.00, 1.78, 8.11, repro,
2007-01-23,0.42, -4.81, -10.39, 2.09, 1.84, 8.43, repro,
2007-01-24,0.69, -4.78, -12.02, 2.14, 1.94, 8.62, repro,
2007-01-25,4.81, -0.90, -14.27, 2.15, 1.92, 9.09, repro,
2007-01-26,6.75, -0.23, -11.77, 2.03, 1.87, 8.69, repro,
2007-01-27,-0.05, -4.46, -11.49, 2.01, 1.84, 8.54, repro,
2007-01-28,5.86, -1.85, 1.82, 1.96, 1.76, 8.13, repro,
2007-01-29,3.89, -6.38, -17.53, 2.32, 2.15, 9.42, repro,
2007-01-30,-1.05, -2.82, -15.12, 2.45, 2.27, 10.22, repro,
2007-01-31,4.50, -1.00, -11.07, 2.22, 2.01, 9.22, repro,
2007-02-01,1.77, -1.95, -6.98, 2.13, 1.94, 9.00, repro,
2007-02-02,0.84, -4.85, -5.58, 2.04, 1.85, 8.42, repro,
2007-02-03,2.64, -4.27, -11.29, 2.03, 1.80, 8.41, repro,
2007-02-04,2.20, -1.65, -14.65, 1.99, 1.79, 8.52, repro,
2007-02-05,5.09, 1.69, -16.85, 1.94, 1.75, 8.14, repro,
2007-02-06,3.57, 1.68, -19.04, 1.98, 1.81, 8.58, repro,
2007-02-07,2.58, -2.32, -10.95, 2.09, 1.94, 8.86, repro,
2007-02-08,-0.86, -0.93, -14.04, 2.16, 1.91, 9.35, repro,
2007-02-09,0.49, -4.55, -13.18, 2.09, 1.90, 8.90, repro,
2007-02-10,3.08, 0.04, -14.38, 2.10, 1.92, 9.10, repro,
2007-02-11,4.29, 2.12, -13.66, 2.05, 1.93, 8.94, repro,
2007-02-12,3.06, 2.59, -12.30, 2.09, 1.89, 9.15, repro,
2007-02-13,-1.15, -2.13, -3.92, 2.24, 2.03, 9.43, repro,
2007-02-14,1.89, -0.97, -12.20, 2.07, 1.84, 8.82, repro,
2007-02-15,3.52, -1.97, -13.57, 2.17, 1.99, 9.15, repro,
2007-02-16,0.93, -8.10, -15.90, 2.26, 2.04, 9.36, repro,
2007-02-17,-0.62, -2.79, -7.07, 2.19, 1.99, 9.30, repro,
2007-02-18,4.48, -2.26, -19.60, 2.06, 1.85, 8.75, repro,
2007-02-19,1.17, -0.69, -8.12, 2.05, 1.90, 8.54, repro,
2007-02-20,-0.31, -3.91, -7.37, 2.05, 1.84, 8.58, repro,
2007-02-21,-2.12, -0.43, -3.35, 1.97, 1.73, 8.10, repro,
2007-02-22,5.39, -0.19, -10.49, 2.01, 1.75, 8.26, repro,
2007-02-23,3.58, -0.95, -15.35, 1.97, 1.76, 8.16, repro,
2007-02-24,-0.81, -0.24, -1.00, 2.03, 1.79, 8.50, repro,
2007-02-25,0.95, -4.64, -2.35, 2.19, 1.95, 8.91, repro,
2007-02-26,2.95, -1.13, -8.31, 2.05, 1.82, 8.40, repro,
2007-02-27,3.41, 0.58, -16.40, 2.09, 1.86, 8.55, repro,
2007-02-28,1.20, -3.30, -12.40, 2.01, 1.73, 8.28, repro,
2007-03-01,-2.64, -1.83, -4.69, 2.05, 1.81, 8.31, repro,
2007-03-02,2.58, -7.07, -6.02, 1.98, 1.74, 7.97, repro,
2007-03-03,1.37, -3.77, -9.97, 1.95, 1.70, 7.79, repro,
2007-03-04,4.75, -3.98, -13.89, 1.93, 1.71, 7.81, repro,
2007-03-05,2.63, -2.25, -20.41, 2.04, 1.80, 8.22, repro,
2007-03-06,1.43, -0.65, -15.75, 2.02, 1.81, 8.37, repro,
2007-03-07,1.97, -2.21, -14.07, 1.96, 1.74, 8.03, repro,
2007-03-08,4.52, -1.59, -17.41, 1.99, 1.76, 8.01, repro,
2007-03-09,2.65, -1.17, -13.95, 2.02, 1.75, 8.18, repro,
2007-03-10,3.20, -1.69, -10.09, 2.00, 1.82, 8.25, repro,
2007-03-11,1.17, -2.86, -16.92, 1.96, 1.74, 7.97, repro,
2007-03-12,3.19, -1.25, -9.23, 2.05, 1.79, 8.21, repro,
2007-03-13,-0.46, -1.33, -13.17, 2.02, 1.83, 8.20, repro,
2007-03-14,1.33, -1.70, -7.56, 2.02, 1.77, 8.22, repro,
2007-03-15,0.77, -0.88, -7.74, 1.94, 1.72, 7.98, repro,
2007-03-16,3.75, -0.16, -8.84, 1.95, 1.73, 8.00, repro,
2007-03-17,4.68, -3.65, -19.43, 1.89, 1.66, 7.74, repro,
2007-03-18,5.29, -1.67, -18.63, 1.94, 1.69, 7.84, repro,
2007-03-19,2.54, -4.58, -17.13, 1.94, 1.68, 7.85, repro,
2007-03-20,5.14, -3.70, -20.94, 2.02, 1.81, 8.47, repro,
2007-03-21,1.52, 1.22, -19.59, 2.08, 1.84, 8.37, repro,
2007-03-22,3.22, 1.02, -13.41, 2.04, 1.81, 8.51, repro,
2007-03-23,4.06, 0.97, -11.96, 1.93, 1.75, 7.99, repro,
2007-03-24,3.15, -1.13, -15.34, 1.92, 1.70, 7.91, repro,
2007-03-25,2.43, -5.51, -8.81, 1.93, 1.68, 7.87, repro,
2007-03-26,3.25, -1.52, -7.29, 1.90, 1.69, 7.85, repro,
2007-03-27,1.34, -2.15, -6.31, 1.95, 1.73, 7.99, repro,
2007-03-28,1.83, -0.29, -4.83, 2.02, 1.74, 8.25, repro,
2007-03-29,1.22, -0.15, -19.01, 2.03, 1.82, 8.28, repro,
2007-03-30,0.81, 2.51, -7.95, 2.00, 1.77, 8.30, repro,
2007-03-31,0.37, -2.32, -6.64, 1.94, 1.71, 7.93, repro,
2007-04-01,0.12, 0.20, -0.31, 1.94, 1.72, 8.01, repro,
2007-04-02,4.59, 1.86, -6.05, 2.04, 1.80, 8.51, repro,
2007-04-03,1.89, -0.32, -6.98, 2.04, 1.76, 8.15, repro,
2007-04-04,4.59, -2.37, -9.05, 2.13, 1.84, 8.69, repro,
2007-04-05,1.99, -1.20, -18.49, 2.34, 1.98, 9.50, repro,
2007-04-06,-0.14, -0.78, -13.44, 2.45, 2.11, 10.06, repro,
2007-04-07,0.38, -0.81, -13.23, 2.27, 2.07, 9.70, repro,
2007-04-08,1.63, 2.68, -9.13, 2.16, 2.05, 9.05, repro,
2007-04-09,0.83, 1.01, -1.72, 2.08, 1.91, 9.00, repro,
2007-04-10,1.04, -5.58, -8.63, 2.07, 1.89, 8.63, repro,
2007-04-11,-0.66, -0.70, 5.48, 2.13, 1.90, 8.82, repro,
2007-04-12,1.28, -7.06, -13.49, 2.00, 1.79, 8.32, repro,
2007-04-13,0.79, -1.49, -3.29, 2.13, 1.93, 8.82, repro,
2007-04-14,0.55, -1.11, -1.36, 2.25, 2.00, 9.09, repro,
2007-04-15,1.99, -2.26, -8.76, 2.10, 1.95, 8.69, repro,
2007-04-16,1.47, -0.05, -8.01, 2.10, 1.95, 8.87, repro,
2007-04-17,2.36, -3.21, -4.41, 1.97, 1.77, 8.34, repro,
2007-04-18,1.52, 3.75, -3.52, 1.91, 1.70, 7.86, repro,
2007-04-19,0.83, -4.24, -8.58, 1.93, 1.70, 7.88, repro,
2007-04-20,3.22, -2.08, -13.65, 1.90, 1.67, 7.86, repro,
2007-04-21,2.37, -1.11, -13.14, 1.91, 1.71, 8.01, repro,
2007-04-22,1.58, -4.26, -11.31, 1.95, 1.74, 8.17, repro,
2007-04-23,1.56, -2.91, -9.71, 1.98, 1.80, 8.09, repro,
2007-04-24,3.12, 1.94, -11.96, 1.92, 1.73, 7.90, repro,
2007-04-25,1.94, 1.22, 4.93, 1.94, 1.73, 8.03, repro,
2007-04-26,1.22, -2.37, -1.29, 2.33, 2.11, 9.69, repro,
2007-04-27,0.27, 0.74, -1.43, 2.28, 2.05, 9.44, repro,
2007-04-28,1.65, -1.26, -8.52, 2.17, 1.92, 9.01, repro,
2007-04-29,2.91, 1.66, -11.95, 2.05, 1.88, 8.50, repro,
2007-04-30,-0.40, 2.62, -1.40, 2.09, 1.92, 8.70, repro,
2007-05-01,1.09, -2.37, -9.34, 1.97, 1.78, 8.12, repro,
2007-05-02,1.61, -2.92, -11.50, 2.10, 1.91, 8.61, repro,
2007-05-03,1.39, -2.58, -6.13, 2.18, 1.96, 8.84, repro,
2007-05-04,3.13, -1.58, 0.63, 2.11, 1.94, 8.81, repro,
2007-05-05,2.40, -1.56, -6.22, 1.97, 1.79, 8.26, repro,
2007-05-06,2.85, -2.60, -4.64, 1.95, 1.74, 8.03, repro,
2007-05-07,1.72, -0.56, -10.21, 1.94, 1.71, 8.01, repro,
2007-05-08,1.08, -3.20, -6.80, 1.97, 1.77, 8.13, repro,
2007-05-09,-0.41, -0.21, 1.31, 1.97, 1.80, 8.22, repro,
2007-05-10,0.48, -2.27, -15.01, 2.06, 1.89, 9.11, repro,
2007-05-11,0.75, -1.48, -4.89, 2.09, 1.94, 8.93, repro,
2007-05-12,2.17, -3.16, 0.94, 2.03, 1.88, 8.44, repro,
2007-05-13,1.42, -0.73, -0.30, 2.02, 1.93, 8.71, repro,
2007-05-14,2.69, 0.47, -4.82, 1.86, 1.75, 7.85, repro,
2007-05-15,2.26, -0.33, -3.46, 1.86, 1.70, 7.89, repro,
2007-05-16,1.81, 2.96, 5.16, 2.07, 1.96, 8.80, repro,
2007-05-17,3.69, -4.52, -5.93, 1.99, 1.81, 8.10, repro,
2007-05-18,2.34, -1.38, -10.97, 2.02, 1.92, 8.60, repro,
2007-05-19,2.94, -0.85, -11.93, 2.00, 1.90, 8.27, repro,
2007-05-20,1.90, 1.63, 3.24, 2.02, 1.88, 8.44, repro,
2007-05-21,2.20, 0.47, -3.82, 1.93, 1.78, 8.08, repro,
2007-05-22,2.53, -1.31, -6.15, 1.92, 1.76, 7.97, repro,
2007-05-23,3.21, -1.34, -6.27, 1.93, 1.77, 8.04, repro,
2007-05-24,3.77, 1.64, -4.75, 1.94, 1.78, 8.22, repro,
2007-05-25,4.06, 0.75, -3.99, 1.88, 1.73, 7.83, repro,
2007-05-26,0.96, -0.91, -6.74, 1.93, 1.78, 8.18, repro,
2007-05-27,2.70, -3.23, -5.56, 1.88, 1.69, 7.85, repro,
2007-05-28,1.42, -1.92, -2.76, 1.93, 1.76, 8.04, repro,
2007-05-29,2.89, 0.37, -1.34, 2.00, 1.84, 8.30, repro,
2007-05-30,4.85, 1.55, -1.67, 2.06, 1.90, 8.46, repro,
2007-05-31,4.11, 0.15, -1.72, 2.10, 1.97, 8.88, repro,
2007-06-01,4.70, 2.34, 2.52, 2.10, 1.97, 8.94, repro,
2007-06-02,4.58, -0.16, 10.15, 2.07, 1.89, 8.56, repro,
2007-06-03,1.44, -1.48, 1.88, 1.94, 1.76, 7.89, repro,
2007-06-04,0.44, -2.17, 3.79, 1.92, 1.78, 8.01, repro,
2007-06-05,-0.02, 2.58, 4.75, 2.09, 1.96, 8.99, repro,
2007-06-06,2.85, -3.14, 7.59, 2.19, 2.05, 8.70, repro,
2007-06-07,4.14, 4.92, 6.19, 2.31, 2.24, 9.41, repro,
2007-06-08,2.97, -1.96, 2.36, 2.21, 2.08, 9.56, repro,
2007-06-09,4.27, 0.85, -5.94, 2.09, 1.95, 8.62, repro,
2007-06-10,2.75, -0.12, 2.03, 1.97, 1.85, 8.17, repro,
2007-06-11,3.25, 0.86, 3.58, 2.01, 1.81, 8.28, repro,
2007-06-12,4.48, 1.39, 3.52, 2.06, 1.77, 8.84, repro,
2007-06-13,2.87, 1.28, 10.72, 2.05, 1.90, 8.27, repro,
2007-06-14,2.15, 3.18, -4.82, 2.15, 2.03, 8.99, repro,
2007-06-15,4.79, -1.22, -3.10, 2.15, 2.01, 8.88, repro,
2007-06-16,4.47, -1.15, -3.89, 2.06, 1.91, 8.60, repro,
2007-06-17,0.24, 0.16, 3.11, 2.11, 1.95, 8.64, repro,
2007-06-18,2.26, -1.70, 3.88, 1.93, 1.77, 8.04, repro,
2007-06-19,3.90, 0.78, 19.36, 2.09, 1.89, 8.74, repro,
2007-06-20,3.40, -2.53, -3.76, 2.01, 1.78, 8.47, repro,
2007-06-21,4.64, 1.61, -5.44, 1.94, 1.78, 7.91, repro,
2007-06-22,1.31, 2.69, 3.58, 2.02, 1.85, 8.44, repro,
2007-06-23,2.74, 2.52, 9.94, 2.14, 1.98, 8.58, repro,
2007-06-24,5.30, -3.70, -5.41, 2.14, 2.03, 8.96, repro,
2007-06-25,3.21, 0.60, 7.97, 2.05, 1.90, 8.47, repro,
2007-06-26,4.87, -0.03, 1.37, 2.12, 1.95, 8.54, repro,
2007-06-27,4.14, -4.30, 3.61, 2.20, 1.99, 9.16, repro,
2007-06-28,3.02, -4.01, 5.53, 2.04, 1.89, 8.60, repro,
2007-06-29,5.25, -2.69, 2.36, 2.34, 2.19, 9.65, repro,
2007-06-30,-0.61, -2.10, 11.57, 2.16, 1.99, 8.86, repro,
2007-07-01,3.82, 1.37, 11.45, 2.34, 2.17, 9.49, repro,
2007-07-02,3.09, -3.49, 5.24, 2.14, 1.94, 8.87, repro,
2007-07-03,5.44, -0.44, 16.33, 2.23, 2.01, 8.95, repro,
2007-07-04,3.57, -0.15, 2.17, 2.04, 1.90, 8.42, repro,
2007-07-05,3.40, -0.58, -0.21, 1.95, 1.76, 8.06, repro,
2007-07-06,5.77, -3.18, -5.07, 1.88, 1.70, 7.71, repro,
2007-07-07,5.79, -2.05, 2.98, 1.98, 1.83, 8.16, repro,
2007-07-08,6.92, -0.23, 11.55, 2.07, 1.88, 8.57, repro,
2007-07-09,2.52, 0.53, 2.13, 2.18, 2.08, 9.05, repro,
2007-07-10,3.00, -2.96, 1.88, 2.18, 2.12, 9.01, repro,
2007-07-11,4.49, 0.71, 2.58, 2.11, 1.92, 8.59, repro,
2007-07-12,3.51, -2.22, 5.37, 1.93, 1.74, 7.91, repro,
2007-07-13,4.65, -0.01, 11.35, 1.98, 1.74, 8.08, repro,
2007-07-14,7.30, -0.26, 1.22, 2.03, 1.80, 8.10, repro,
2007-07-15,1.73, -4.44, 6.22, 2.00, 1.84, 8.46, repro,
2007-07-16,-0.21, -1.29, -1.66, 2.13, 1.94, 9.16, repro,
2007-07-17,2.85, -1.36, 8.57, 2.21, 1.98, 8.67, repro,
2007-07-18,2.11, 0.18, 3.28, 2.24, 2.01, 9.29, repro,
2007-07-19,4.68, -3.71, 13.45, 2.10, 1.93, 8.65, repro,
2007-07-20,3.65, -3.65, 3.03, 2.67, 2.41, 10.68, repro,
2007-07-21,6.10, -1.89, 7.05, 1.95, 1.77, 8.31, repro,
2007-07-22,3.57, -2.28, 11.42, 1.93, 1.71, 7.99, repro,
2007-07-23,0.74, -0.01, 0.50, 2.20, 1.98, 9.08, repro,
2007-07-24,2.43, -2.28, 4.18, 2.22, 1.97, 9.49, repro,
2007-07-25,3.27, -1.28, 10.08, 2.26, 2.05, 8.96, repro,
2007-07-26,2.03, -0.13, 14.74, 2.15, 1.93, 8.97, repro,
2007-07-27,4.42, -3.57, 1.20, 2.14, 1.96, 8.75, repro,
2007-07-28,4.21, -5.90, 18.48, 2.10, 1.94, 8.67, repro,
2007-07-29,1.58, -0.60, 13.35, 2.01, 1.80, 8.46, repro,
2007-07-30,3.57, -3.63, 22.55, 1.99, 1.75, 7.99, repro,
2007-07-31,1.11, -2.65, 18.31, 2.18, 1.94, 8.89, repro,
2007-08-01,2.92, 1.84, 8.24, 2.03, 1.90, 8.60, repro,
2007-08-02,0.44, -2.70, 15.21, 2.14, 1.93, 9.04, repro,
2007-08-03,5.33, -5.60, 15.03, 2.10, 1.93, 8.81, repro,
2007-08-04,3.24, -3.73, 18.80, 2.34, 2.08, 9.50, repro,
2007-08-05,4.85, 1.59, 11.76, 1.99, 1.83, 8.20, repro,
2007-08-06,3.39, -3.65, 18.30, 1.99, 1.88, 8.31, repro,
2007-08-07,6.22, 0.60, 12.36, 1.95, 1.76, 8.05, repro,
2007-08-08,3.20, -0.12, 18.48, 1.93, 1.78, 7.97, repro,
2007-08-09,4.79, -0.00, 16.80, 2.12, 1.91, 8.81, repro,
2007-08-10,5.84, -8.26, 16.61, 2.88, 2.37, 10.96, repro,
2007-08-11,6.75, 3.10, 22.53, 2.09, 1.97, 8.88, repro,
2007-08-12,7.37, -0.22, 11.38, 2.08, 1.95, 8.62, repro,
2007-08-13,4.62, -1.51, 18.61, 2.32, 2.19, 9.53, repro,
2007-08-14,5.69, 1.41, 13.99, 2.08, 1.83, 8.57, repro,
2007-08-15,4.55, 2.51, 22.69, 2.10, 1.87, 8.58, repro,
2007-08-16,3.90, -0.30, 27.39, 2.49, 1.98, 9.60, repro,
2007-08-17,5.96, 0.81, 4.48, 2.06, 1.86, 8.12, repro,
2007-08-18,10.32, -2.06, -0.78, 3.56, 3.16, 13.49, repro,
2007-08-20,10.68, 0.24, 23.06, 2.80, 2.74, 11.70, repro,
2007-08-21,8.19, -1.90, 6.79, 1.99, 1.81, 8.06, repro,
2007-08-22,7.09, 2.65, 16.29, 2.09, 1.89, 8.35, repro,
2007-08-23,5.54, 5.24, 21.67, 2.44, 2.02, 9.52, repro,
2007-08-24,8.04, -0.32, 19.51, 2.15, 1.83, 8.77, repro,
2007-08-25,5.33, -3.73, 4.55, 2.13, 1.88, 8.81, repro,
2007-08-26,8.23, -0.26, 6.70, 2.12, 1.90, 8.55, repro,
2007-08-27,8.99, -1.48, 11.42, 2.20, 1.91, 8.68, repro,
2007-08-28,7.18, 2.42, 11.34, 1.98, 1.77, 8.17, repro,
2007-08-29,6.78, -0.44, 13.88, 1.97, 1.74, 8.10, repro,
2007-08-30,8.24, -3.01, 8.48, 2.04, 1.88, 8.69, repro,
2007-08-31,7.83, -0.60, 8.55, 2.20, 1.84, 8.96, repro,
2007-09-01,6.15, -1.21, -1.58, 2.01, 1.83, 8.35, repro,
2007-09-02,4.39, 2.03, -2.51, 2.02, 1.84, 8.40, repro,
2007-09-03,6.35, 3.32, 13.25, 2.03, 1.84, 8.34, repro,
2007-09-04,7.22, 0.37, 7.63, 2.01, 1.77, 8.11, repro,
2007-09-05,4.71, -0.60, 15.04, 2.01, 1.78, 8.23, repro,
2007-09-06,5.36, 5.53, 10.83, 2.01, 1.81, 8.49, repro,
2007-09-07,2.42, -1.25, 14.20, 2.11, 1.86, 8.63, repro,
2007-09-08,6.44, -1.02, 16.15, 2.07, 1.84, 8.33, repro,
2007-09-09,8.51, 1.08, 14.58, 2.09, 1.86, 8.33, repro,
2007-09-10,10.52, -1.16, 4.52, 2.19, 1.98, 8.78, repro,
2007-09-11,6.38, -0.25, 9.98, 2.10, 1.85, 8.43, repro,
2007-09-13,2.24, 0.80, 7.88, 2.05, 1.81, 8.23, repro,
2007-09-14,7.07, 1.81, 16.43, 1.99, 1.77, 8.18, repro,
2007-09-15,9.00, 0.39, 6.38, 2.08, 1.86, 8.29, repro,
2007-09-16,9.67, 1.42, 4.64, 2.02, 1.77, 8.08, repro,
2007-09-17,9.23, 3.56, 8.55, 2.07, 1.80, 8.25, repro,
2007-09-18,9.94, 2.06, 5.02, 1.97, 1.74, 8.03, repro,
2007-09-19,7.93, 2.79, 8.32, 1.91, 1.72, 7.65, repro,
2007-09-20,8.56, 2.49, 12.80, 1.88, 1.70, 7.62, repro,
2007-09-21,6.44, 1.78, 9.63, 2.02, 1.80, 8.04, repro,
2007-09-22,7.27, 4.12, 14.33, 1.98, 1.77, 8.07, repro,
2007-09-23,5.08, 3.35, 3.91, 2.05, 1.81, 8.14, repro,
2007-09-24,7.34, -2.26, 0.90, 1.99, 1.80, 8.05, repro,
2007-09-25,9.58, -0.96, 2.20, 1.88, 1.74, 7.68, repro,
2007-09-26,10.36, 1.74, 9.29, 2.02, 1.78, 7.99, repro,
2007-09-27,6.25, 1.31, 8.21, 3.09, 2.43, 11.68, repro,
2007-09-28,10.06, 13.63, 16.38, 6.05, 6.28, 21.96, repro,
2007-09-30,12.02, -0.39, 3.72, 2.26, 2.11, 9.19, repro,
2007-10-01,17.49, 4.81, -9.39, 3.56, 3.93, 15.36, repro,
2007-10-02,11.22, 0.31, 4.04, 2.00, 1.83, 7.95, repro,
2007-10-03,3.94, 3.49, 10.85, 2.08, 1.88, 8.15, repro,
2007-10-04,3.99, 1.30, 8.97, 1.96, 1.79, 7.90, repro,
2007-10-05,3.33, 2.45, 9.86, 1.96, 1.76, 7.82, repro,
2007-10-06,9.13, -0.53, 3.26, 1.98, 1.77, 7.82, repro,
2007-10-07,5.84, 1.02, 1.01, 1.97, 1.79, 7.85, repro,
2007-10-08,8.03, -0.32, 0.11, 2.14, 1.93, 8.38, repro,
2007-10-09,5.17, 3.42, 3.32, 2.27, 1.93, 9.09, repro,
2007-10-10,11.84, -0.32, 3.65, 2.05, 1.90, 8.20, repro,
2007-10-11,11.19, 0.40, 4.25, 1.95, 1.75, 7.69, repro,
2007-10-12,11.18, 0.10, -1.37, 2.02, 1.79, 8.06, repro,